Location: Darlington Observatory
(36.4817°N, 105.8156°W)
Time: 17:14:31
(UTC-07:00)

NOSS 3-3 (A) - Visible Passes

Search period start: 22 February 2017 00:00
Search period end: 04 March 2017 00:00
Orbit: 911 x 1302 km, 63.4° (Epoch: 15 February)

Date Brightness Start Highest point End Pass type
(mag) Time Alt. Az. Time Alt. Az. Time Alt. Az.
23 Feb 6.5 05:56:52 10° N 06:01:43 18° NE 06:06:46 10° ENE visible
24 Feb 6.7 05:13:09 10° N 05:16:13 13° NNE 05:19:22 10° NE visible
26 Feb 6.5 05:33:14 10° N 05:38:52 22° NE 05:44:47 10° E visible
27 Feb 6.6 04:49:14 10° N 04:53:30 16° NE 04:57:54 10° ENE visible
28 Feb 6.9 04:05:56 10° NNE 04:07:55 11° NNE 04:09:57 10° NE visible
28 Feb 5.8 05:54:02 10° NNW 06:01:03 41° NE 06:08:29 10° ESE visible
01 Mar 6.3 05:09:42 10° NNW 05:15:58 28° NE 05:22:33 10° E visible
02 Mar 6.6 04:25:33 10° N 04:30:42 20° NE 04:36:05 10° E visible
03 Mar 6.8 03:41:41 10° N 03:45:14 14° NNE 03:48:54 10° ENE visible
03 Mar 5.4 05:30:40 10° NNW 05:37:59 52° NE 05:45:45 10° SE visible
